CDT,Max TemperatureF,Mean TemperatureF,Min TemperatureF,Max Dew PointF,MeanDew PointF,Min DewpointF,Max Humidity, Mean Humidity, Min Humidity, Max Sea Level PressureIn, Mean Sea Level PressureIn, Min Sea Level PressureIn, Max VisibilityMiles, Mean VisibilityMiles, Min VisibilityMiles, Max Wind SpeedMPH, Mean Wind SpeedMPH, Max Gust SpeedMPH,PrecipitationIn, CloudCover, Events, WindDirDegrees
2013-5-1,73,60,44,45,42,34,76,54,33,30.26,30.10,29.93,10,10,10,17,8,24,0.00,2,,358
2013-5-2,44,38,33,36,33,30,93,77,66,30.33,30.28,30.25,10,10,3,16,11,23,0.04,7,Rain-Thunderstorm,3
2013-5-3,42,37,32,43,36,30,100,95,87,30.25,30.10,30.02,10,7,2,13,8,20,0.31,8,Rain,27
2013-5-4,68,55,42,52,44,41,100,74,43,30.07,30.03,29.99,10,8,2,12,7,,0.00,4,,57
2013-5-5,71,58,44,45,43,39,93,61,31,30.08,30.05,30.00,10,10,10,12,4,16,0.00,1,,71
2013-5-6,73,58,42,45,39,32,93,52,22,30.10,30.05,30.00,10,10,10,9,2,,0.00,0,,72
2013-5-7,78,60,42,45,37,28,93,46,18,30.08,30.03,29.98,10,10,10,10,2,,0.00,1,,116
2013-5-8,80,64,48,47,40,33,76,43,19,30.04,29.99,29.95,10,10,10,12,2,17,0.03,2,,201
2013-5-9,62,55,47,56,51,45,93,84,56,29.96,29.93,29.89,10,6,2,17,6,23,0.79,8,Rain,59
2013-5-10,54,47,40,44,42,38,93,84,66,30.01,29.96,29.92,10,9,2,16,9,25,0.43,6,Rain,22
2013-5-11,51,46,41,47,33,20,92,62,31,30.06,29.93,29.80,10,10,7,29,10,38,0.00,5,Rain,290
2013-5-12,54,44,33,27,21,14,70,43,21,30.13,30.09,30.06,10,10,10,16,10,26,0.00,2,,314
2013-5-13,63,46,29,32,26,19,88,46,20,30.16,30.06,29.86,10,10,5,16,5,21,0.00,2,,185
2013-5-14,89,73,57,56,43,32,58,37,18,29.85,29.68,29.53,10,10,10,23,12,30,0.00,1,,218
2013-5-15,76,68,58,54,38,30,54,34,20,29.88,29.80,29.58,10,10,10,14,9,23,0.00,1,,298
2013-5-16,82,66,49,46,41,34,78,44,21,29.99,29.91,29.87,10,10,4,17,3,22,0.00,2,,97
2013-5-17,60,54,47,52,44,30,93,73,35,30.11,30.05,29.98,10,10,3,14,9,21,0.46,5,Rain-Thunderstorm,80
2013-5-18,79,64,50,60,54,47,90,73,49,30.07,30.00,29.92,10,10,7,13,5,16,0.00,4,,108
2013-5-19,86,73,60,62,58,51,88,62,37,29.93,29.82,29.64,10,9,3,23,9,34,0.00,1,Rain,155
2013-5-20,81,70,60,59,57,52,93,65,43,29.80,29.68,29.60,10,10,4,21,10,39,0.27,2,Rain-Thunderstorm,186
2013-5-21,73,66,58,59,55,52,85,66,50,29.71,29.64,29.59,10,10,10,20,10,26,0.00,6,,212
2013-5-22,65,59,52,59,55,50,94,86,75,29.82,29.68,29.63,10,10,3,15,4,22,0.05,6,Rain-Thunderstorm,53
2013-5-23,62,54,45,50,39,26,94,63,25,30.31,30.10,29.84,10,10,4,14,8,23,0.04,4,Rain,19
2013-5-24,64,50,36,40,35,28,96,58,31,30.46,30.36,30.29,10,10,10,8,3,,0.00,0,,100
2013-5-25,61,54,47,42,37,32,73,54,36,30.38,30.33,30.28,10,10,10,13,5,18,0.00,6,Rain,133
2013-5-26,64,54,43,50,40,32,83,64,33,30.30,30.23,30.16,10,10,7,14,6,20,0.11,6,Rain,101
2013-5-27,55,52,50,52,47,39,95,83,62,30.14,30.00,29.89,10,6,0,17,9,24,0.07,8,Fog-Rain,93
2013-5-28,64,56,50,59,54,49,95,92,83,29.89,29.77,29.72,7,3,0,9,5,10,0.21,8,Fog-Rain,66
2013-5-29,83,70,58,64,60,57,96,77,47,29.89,29.85,29.77,10,6,0,17,4,22,0.46,5,Fog-Rain-Thunderstorm,182
2013-5-30,83,72,61,65,62,57,94,76,50,29.87,29.77,29.69,10,10,5,23,10,37,0.12,4,Rain-Thunderstorm,166
2013-5-31,79,70,62,62,58,54,87,71,43,29.76,29.72,29.67,10,10,7,22,14,34,0.11,4,,194